CW1492 Weather Reports


Display with metric or nautical units.
time (UTC)temp
F
wind
direction
speed
MPH
gust
MPH
rain 1hr
in
rain 24hr
in
rain mn
in
humidity
%
barometer
mb
20260903070356 61 36 1.0 2.0 0.01 0.02 0.02 94 1016.2
20260903070327 61 120 1.0 6.0 0.00 0.01 0.01 84 1017.8
20260903064854 61 315 0.0 3.0 0.02 0.02 0.02 93 1016.1
20260903064827 61 98 2.0 3.0 0.01 0.01 0.01 84 1017.6
20260903063338 62 121 1.0 7.0 0.02 0.02 0.02 93 1016.0
20260903063333 61 157 1.0 3.0 0.01 0.01 0.01 83 1017.7
20260903061835 61 126 1.0 9.0 0.01 0.01 0.01 83 1017.7
20260903061826 63 11 1.0 7.0 0.02 0.02 0.02 92 1016.3
20260903060355 62 107 2.0 6.0 0.01 0.01 0.01 81 1018.2
20260903060353 63 115 1.0 7.0 0.01 0.01 0.01 90 1016.6
20260903054903 62 126 2.0 4.0 0.00 0.00 0.00 80 1018.6
20260903054817 64 146 6.0 9.0 0.00 0.00 0.00 88 1017.1
20260903053428 63 81 1.0 2.0 0.00 0.00 0.00 79 1018.9
20260903053317 64 117 3.0 9.0 0.00 0.00 0.00 88 1017.4
20260903051848 63 62 3.0 4.0 0.00 0.00 0.00 77 1019.0
20260903051833 65 149 1.0 7.0 0.00 0.00 0.00 87 1017.7
20260903050334 64 75 2.0 5.0 0.00 0.00 0.00 76 1019.0
20260903050313 65 136 4.0 8.0 0.00 0.00 0.00 87 1017.5
20260903044900 65 114 5.0 11.0 0.00 0.00 0.00 87 1017.4
20260903044837 64 124 3.0 5.0 0.00 0.00 0.00 74 1019.0
20260903043421 64 128 2.0 7.0 0.00 0.00 0.00 74 1019.0
20260903043322 65 107 4.0 10.0 0.00 0.00 0.00 85 1017.4
20260903041851 65 138 5.0 9.0 0.00 0.00 0.00 87 1017.8
20260903041839 65 86 3.0 9.0 0.00 0.00 0.00 74 1019.3
20260903040423 65 143 3.0 8.0 0.00 0.00 0.00 87 1017.9
20260903040351 65 113 5.0 8.0 0.00 0.00 0.00 74 1019.3
20260903040340 65 143 3.0 8.0 0.00 0.00 0.00 87 1017.9
20260903034941 65 118 3.0 8.0 0.00 0.00 0.00 75 1019.6
20260903034822 66 139 4.0 7.0 0.00 0.00 0.00 86 1018.0
20260903033407 66 144 6.0 9.0 0.00 0.00 0.00 84 1017.9
20260903033327 65 87 3.0 6.0 0.00 0.00 0.00 75 1019.3
20260903031851 65 30 3.0 6.0 0.00 0.00 0.00 74 1019.6
20260903031825 66 144 5.0 9.0 0.00 0.00 0.00 86 1018.1
20260903030419 65 143 2.0 7.0 0.00 0.00 0.00 74 1019.7
20260903030327 66 130 4.0 10.0 0.00 0.00 0.00 84 1018.3
20260903024914 65 109 2.0 8.0 0.00 0.00 0.00 74 1019.8
20260903024828 66 150 8.0 12.0 0.00 0.00 0.00 86 1018.2
20260903023356 65 185 3.0 6.0 0.00 0.00 0.00 75 1020.2
20260903023327 66 175 5.0 12.0 0.00 0.00 0.00 88 1018.6
20260903021844 66 112 3.0 6.0 0.00 0.00 0.00 77 1020.1
20260903021811 66 153 7.0 12.0 0.00 0.00 0.00 88 1018.7
20260903020345 66 93 3.0 5.0 0.00 0.00 0.00 77 1020.3
20260903020317 66 153 8.0 11.0 0.00 0.00 0.00 89 1018.9
20260903014830 66 108 3.0 7.0 0.00 0.00 0.00 78 1020.6
20260903014812 66 123 6.0 9.0 0.00 0.00 0.00 89 1019.2
20260903013426 66 124 3.0 6.0 0.00 0.00 0.00 78 1020.6
20260903013325 67 140 6.0 11.0 0.00 0.00 0.00 88 1019.2
20260903011847 66 157 2.0 8.0 0.00 0.00 0.00 80 1020.6
20260903011822 67 154 7.0 9.0 0.00 0.00 0.00 87 1019.3
20260903010355 66 193 2.0 7.0 0.00 0.00 0.00 81 1020.4
20260903010327 67 150 11.0 15.0 0.00 0.00 0.00 86 1018.9
20260903004836 66 214 1.0 2.0 0.00 0.00 0.00 82 1020.8
20260903004812 67 32 2.0 8.0 0.00 0.00 0.00 86 1019.4
20260903003329 66 49 1.0 3.0 0.00 0.00 0.00 82 1019.8
20260903003322 67 153 8.0 11.0 0.00 0.00 0.00 86 1018.5
20260903001943 66 189 1.0 4.0 0.00 0.00 0.00 83 1019.6
20260903001816 67 150 8.0 11.0 0.00 0.00 0.00 86 1018.2
20260903000402 67 155 9.0 11.0 0.00 0.00 0.00 86 1018.7
20260903000348 66 162 2.0 6.0 0.00 0.00 0.00 83 1019.9
20260902234914 66 122 2.0 4.0 0.00 0.00 0.00 84 1020.3
20260902234820 67 154 8.0 13.0 0.00 0.00 0.00 85 1018.9
20260902233406 66 99 2.0 5.0 0.00 0.00 0.00 84 1020.3
20260902233319 68 154 10.0 13.0 0.00 0.00 0.00 86 1018.9
20260902231937 67 100 1.0 3.0 0.00 0.00 0.00 83 1020.6
20260902231820 68 145 9.0 11.0 0.00 0.00 0.00 87 1019.3
20260902230345 68 69 1.0 5.0 0.00 0.00 0.00 90 1019.6
20260902230335 67 132 0.0 2.0 0.00 0.00 0.00 83 1021.1
20260902224906 67 62 1.0 2.0 0.00 0.00 0.00 83 1021.3
20260902224824 67 271 0.0 2.0 0.00 0.00 0.00 90 1020.1
20260902223453 67 121 1.0 2.0 0.00 0.00 0.00 82 1021.8
20260902223411 67 121 1.0 2.0 0.00 0.00 0.00 82 1021.8
20260902223331 68 271 1.0 2.0 0.00 0.00 0.00 90 1020.3
20260902221851 68 86 1.0 3.0 0.00 0.00 0.00 82 1021.5
20260902221835 68 261 0.0 2.0 0.00 0.00 0.00 89 1020.2
20260902220353 68 108 0.0 0.0 0.00 0.00 0.00 81 1021.8
20260902220319 69 123 1.0 2.0 0.00 0.00 0.00 89 1020.5
20260902214905 69 132 1.0 3.0 0.00 0.00 0.00 87 1020.2
20260902214859 69 108 0.0 3.0 0.00 0.00 0.00 81 1021.7
20260902213345 69 269 0.0 1.0 0.00 0.00 0.00 81 1021.7
20260902213327 70 67 1.0 7.0 0.00 0.00 0.00 86 1020.3
20260902211851 69 75 1.0 3.0 0.00 0.00 0.00 80 1021.5
20260902211829 69 156 2.0 6.0 0.00 0.00 0.00 86 1020.2
20260902210357 69 142 1.0 3.0 0.00 0.00 0.00 80 1021.6
20260902210334 69 115 3.0 5.0 0.00 0.00 0.00 84 1020.3
20260902204858 70 118 0.0 0.0 0.00 0.00 0.00 80 1021.6
20260902204812 70 136 4.0 8.0 0.00 0.00 0.00 84 1020.3
20260902203346 69 118 1.0 2.0 0.00 0.00 0.00 80 1021.4
20260902203317 70 150 7.0 10.0 0.00 0.00 0.00 84 1020.2
20260902201835 70 152 7.0 12.0 0.00 0.00 0.00 83 1020.0
20260902201827 69 228 0.0 2.0 0.00 0.00 0.00 80 1021.6
20260902200407 69 125 2.0 10.0 0.00 0.00 0.00 83 1020.9
20260902200402 69 96 1.0 3.0 0.00 0.00 0.00 80 1021.9
20260902194917 69 174 8.0 14.0 0.00 0.00 0.00 81 1020.7
20260902194906 69 145 0.0 2.0 0.00 0.00 0.00 79 1022.1
20260902193417 69 244 1.0 4.0 0.00 0.00 0.00 78 1022.0
20260902193358 69 140 10.0 12.0 0.00 0.00 0.00 83 1020.6
20260902191907 69 54 1.0 3.0 0.00 0.00 0.00 80 1022.0
20260902191814 69 157 8.0 12.0 0.00 0.01 0.00 83 1020.8
20260902190357 69 136 10.0 12.0 0.00 0.01 0.00 83 1021.0
20260902190348 69 166 0.0 3.0 0.00 0.00 0.00 79 1022.4
20260902184835 69 191 0.0 3.0 0.00 0.01 0.00 80 1022.7
20260902184816 69 154 4.0 9.0 0.00 0.01 0.00 84 1021.2
20260902183411 69 124 0.0 2.0 0.00 0.01 0.00 80 1022.7
20260902183319 69 158 4.0 11.0 0.00 0.01 0.00 83 1021.3
20260902181840 69 121 8.0 11.0 0.00 0.01 0.00 84 1021.2
20260902181828 69 164 1.0 3.0 0.00 0.01 0.00 78 1022.5
20260902180419 69 131 1.0 4.0 0.00 0.01 0.00 78 1022.5
20260902180341 68 139 7.0 10.0 0.00 0.01 0.00 82 1021.2
20260902174924 69 202 0.0 8.0 0.00 0.02 0.00 79 1022.6
20260902174823 68 141 10.0 12.0 0.00 0.01 0.00 84 1021.1
20260902173352 68 166 0.0 6.0 0.00 0.02 0.00 80 1022.6
20260902173325 68 153 7.0 11.0 0.00 0.01 0.00 83 1021.2
20260902171925 68 142 2.0 6.0 0.00 0.02 0.00 78 1022.7
20260902171907 68 128 8.0 10.0 0.00 0.02 0.00 83 1021.3
20260902171825 68 128 8.0 10.0 0.00 0.02 0.00 83 1021.3
20260902170328 68 126 3.0 6.0 0.00 0.02 0.00 79 1022.8
20260902170324 67 147 7.0 8.0 0.00 0.02 0.00 85 1021.3
20260902164939 67 128 2.0 4.0 0.00 0.05 0.00 80 1023.1
20260902164844 67 142 6.0 10.0 0.00 0.02 0.00 85 1021.6
20260902163403 67 212 2.0 8.0 0.00 0.05 0.00 81 1023.1
20260902163347 67 145 12.0 13.0 0.00 0.02 0.00 85 1021.5
20260902161843 67 136 9.0 14.0 0.00 0.07 0.00 87 1021.7
20260902161827 67 185 0.0 3.0 0.00 0.05 0.00 81 1023.0
20260902160351 66 146 9.0 11.0 0.00 0.07 0.00 85 1021.7
20260902160327 67 220 1.0 3.0 0.00 0.05 0.00 83 1023.1
20260902154831 66 287 0.0 1.0 0.00 0.10 0.00 84 1023.5
20260902154827 66 133 8.0 11.0 0.00 0.07 0.00 87 1021.9
20260902153406 66 287 0.0 3.0 0.00 0.10 0.00 84 1023.6
20260902153348 66 157 6.0 9.0 0.00 0.07 0.00 87 1022.2
20260902151827 66 146 1.0 8.0 0.00 0.07 0.00 87 1022.3
20260902150337 66 270 1.0 3.0 0.00 0.10 0.00 83 1023.9
20260902150332 66 157 5.0 9.0 0.00 0.07 0.00 87 1022.6
20260902144848 65 168 4.0 11.0 0.00 0.07 0.00 87 1022.5
20260902144842 66 134 1.0 3.0 0.00 0.10 0.00 82 1023.9
20260902143435 65 210 3.0 8.0 0.00 0.10 0.00 83 1023.7
20260902143351 65 102 3.0 6.0 0.00 0.07 0.00 87 1022.4
20260902141852 65 200 3.0 5.0 0.00 0.10 0.00 83 1023.6
20260902141844 65 138 3.0 9.0 0.00 0.07 0.00 88 1022.3
20260902140413 65 132 5.0 8.0 0.00 0.07 0.00 88 1022.2
20260902140331 65 182 1.0 5.0 0.00 0.10 0.00 84 1023.5
20260902134942 64 114 2.0 4.0 0.00 0.10 0.00 84 1023.5
20260902134909 65 108 1.0 6.0 0.00 0.07 0.00 89 1022.2
20260902133357 64 137 2.0 6.0 0.00 0.07 0.00 89 1022.0
20260902133328 64 154 1.0 3.0 0.00 0.10 0.00 85 1023.4
20260902131859 64 146 1.0 6.0 0.00 0.08 0.00 89 1021.5
20260902131828 64 195 0.0 3.0 0.00 0.10 0.00 85 1023.0
20260902130350 64 228 0.0 1.0 0.00 0.10 0.00 87 1023.1
20260902130340 63 138 3.0 8.0 0.00 0.08 0.00 89 1021.6
20260902124837 63 200 1.0 2.0 0.00 0.11 0.00 88 1023.1
20260902124813 63 160 3.0 7.0 0.00 0.08 0.00 92 1021.7
20260902123350 62 139 3.0 6.0 0.00 0.08 0.00 94 1021.8
20260902123341 62 255 1.0 2.0 0.00 0.11 0.00 89 1023.1
20260902121929 61 126 1.0 3.0 0.00 0.13 0.00 97 1021.7
20260902121845 62 260 1.0 2.0 0.00 0.11 0.00 89 1023.2
20260902120358 61 207 0.0 1.0 0.00 0.11 0.00 89 1023.2
20260902120315 61 250 0.0 1.0 0.00 0.13 0.00 98 1021.8
20260902114940 61 250 0.0 1.0 0.00 0.13 0.00 98 1021.8
20260902114842 61 107 0.0 0.0 0.00 0.20 0.00 90 1023.3
20260902113404 61 250 1.0 1.0 0.00 0.13 0.00 98 1021.9
20260902113351 61 107 0.0 0.0 0.00 0.20 0.00 90 1023.4
20260902111853 61 107 0.0 0.0 0.00 0.20 0.00 90 1023.5
20260902111845 61 250 1.0 2.0 0.00 0.25 0.00 98 1022.2
20260902110352 60 250 0.0 1.0 0.00 0.25 0.00 98 1022.1
20260902110336 61 107 0.0 0.0 0.00 0.20 0.00 90 1023.4
20260902104919 60 246 0.0 1.0 0.00 0.25 0.00 98 1021.9
20260902104907 61 107 0.0 0.0 0.00 0.27 0.00 90 1023.3
20260902104816 60 246 0.0 1.0 0.00 0.25 0.00 98 1021.9
20260902103415 60 107 0.0 0.0 0.00 0.27 0.00 90 1023.1
20260902103400 60 246 0.0 1.0 0.00 0.25 0.00 98 1021.7
20260902101921 60 107 0.0 0.0 0.00 0.27 0.00 90 1022.9
20260902101907 60 246 1.0 2.0 0.00 0.25 0.00 97 1021.6
20260902100337 61 107 0.0 0.0 0.00 0.27 0.00 90 1022.6
20260902100326 60 244 0.0 1.0 0.00 0.25 0.00 97 1021.3
20260902094907 60 244 0.0 2.0 0.00 0.25 0.00 97 1021.3
20260902094824 61 107 0.0 0.0 0.00 0.27 0.00 90 1022.5
20260902093414 61 107 0.0 0.0 0.00 0.27 0.00 90 1022.5
20260902093328 60 244 0.0 1.0 0.00 0.25 0.00 98 1021.2
20260902091910 61 107 0.0 0.0 0.00 0.27 0.00 90 1022.3
20260902091907 60 244 1.0 1.0 0.00 0.25 0.00 97 1021.3
20260902090354 60 244 0.0 2.0 0.00 0.25 0.00 97 1021.0
20260902090349 60 107 0.0 0.0 0.00 0.27 0.00 89 1022.2
20260902084855 61 159 1.0 2.0 0.00 0.25 0.00 97 1020.8
20260902084835 60 107 0.0 0.0 0.00 0.27 0.00 89 1022.2
20260902083408 60 107 0.0 0.0 0.00 0.27 0.00 89 1022.1
20260902083315 61 153 0.0 1.0 0.00 0.25 0.00 97 1020.9
20260902081836 61 129 3.0 6.0 0.00 0.25 0.00 98 1020.8
20260902081825 60 107 0.0 0.0 0.00 0.27 0.00 89 1022.2
20260902080414 60 99 0.0 2.0 0.00 0.27 0.00 89 1022.2
20260902080348 60 239 0.0 1.0 0.00 0.25 0.00 97 1020.9
20260902074924 60 83 0.0 0.0 0.00 0.27 0.00 89 1022.3
20260902074848 60 239 0.0 2.0 0.00 0.25 0.00 97 1021.1
20260902073353 61 83 0.0 0.0 0.00 0.27 0.00 89 1022.2
20260902073330 60 239 0.0 2.0 0.00 0.25 0.00 97 1021.0
20260902071853 61 327 0.0 1.0 0.00 0.25 0.00 97 1020.9
20260902071835 61 83 0.0 0.0 0.00 0.27 0.00 89 1022.2